Preview of NWS' New Version of Forecast
This preview is not operational and should not be used for support decisions.
Latest weather observations around

Joplin, Joplin Regional Airport (KJLN)

Using English Units (Switch to International System of Units)
Date/ Time (CDT) Wind (mph) Vis. (mi) Weather Sky Cond. Temp (°F) Rel. Humidity Wind Chill (°F) Heat Index (°F) Pressure Precip. (in)
Air Dwpt 6 hour Altimeter (inHg) Sea level (inHg) 1 hr 3 hr 6 hr
Max Min
Apr 20 08:53 WSW 5 10 Clear CLR 51 39     63%     30.03 30.03      
Apr 20 07:53 Calm 10 Clear CLR 43 39     86%     30.02 30.02      
Apr 20 06:53 Calm 10 Clear CLR 35 33     92%     30 30      
Apr 20 05:53 SSW 3 10 Clear CLR 38 33     82% 36   29.98 29.97      
Apr 20 04:53 SSW 3 10 Clear CLR 38 34     85% 36   29.99 29.98      
Apr 20 03:53 WSW 3 10 Clear CLR 40 33     76% 38   29.98 29.98      
Apr 20 02:53 Calm 10 Clear CLR 38 35     89%     29.98 29.98      
Apr 20 01:53 Calm 10 Clear CLR 44 36     73%     29.99 29.98      
Apr 20 00:53 Calm 10 Clear CLR 48 34     58%     30 29.99      
Apr 19 23:53 Calm 10 Clear CLR 48 34     58%     29.99 29.99      
Apr 19 22:53 Calm 10 Clear CLR 50 34     54%     29.99 29.98      
Apr 19 21:53 WNW 3 10 Clear CLR 49 35     59% 48   29.98 29.98      
Apr 19 20:53 NNW 5 10 Clear CLR 51 34     52%     29.97 29.96      
Apr 19 19:53 NNW 10 10 Clear CLR 55 35     47%     29.96 29.96      
Apr 19 18:53 NNW 17 10 Clear CLR 59 35     41%     29.96 29.96      
Apr 19 17:53 N 17 10 Clear CLR 61 35     38%     29.96 29.95      
Apr 19 16:53 N 18 10 Mostly Clear FEW065 60 36     40%     29.96 29.95      
Apr 19 15:53   10 Mostly Clear FEW065 60 36     40%     29.96 29.96      
Apr 19 14:53 N 15 10 Mostly Clear FEW060 61 38     42%     29.98 29.97      
Apr 19 13:53 N 21 10 Mostly Clear and Windy FEW055 60 38     44%     29.99 29.98      
Apr 19 12:53   10 Partly Cloudy SCT055 58 38     47%     30.01 30      
Apr 19 11:53   10 Partly Cloudy SCT043 SCT050 55 40     57%     30.01 30.01      
Apr 19 10:53 NNW 18 10 Mostly Cloudy BKN036 53 41     63%     30.02 30.02      
Apr 19 09:53   10 Mostly Clear FEW028 52 41     66%     30.01 30.01      
Apr 19 08:53 NNW 18 10 Mostly Clear FEW024 50 41     71%     30.01 30.01      
Apr 19 07:53 NNW 13 10 Clear CLR 47 40     76% 41   29.99 29.98      
Apr 19 06:53 NNW 13 10 Clear CLR 45 39     80% 39   29.96 29.96      
Apr 19 05:53 NNW 11 10 Clear CLR 45 39     80% 39   29.93 29.93      
Apr 19 04:53 N 11 10 Mostly Clear FEW060 45 40     82% 39   29.92 29.92      
Apr 19 03:53 N 7 10 Partly Cloudy FEW060 SCT090 44 40     85% 40   29.91 29.9      
Apr 19 02:53 N 9 10 Clear CLR 45 40     82% 40   29.91 29.9      
Apr 19 01:53 N 8 10 Mostly Cloudy BKN070 BKN100 45 40     82% 41   29.91 29.9      
Apr 19 00:53 N 5 10 Cloudy FEW070 OVC095 46 40     79% 44   29.89 29.88      
Apr 18 23:53 NNW 5 10 Clear CLR 46 40     79% 44   29.88 29.87      
Apr 18 22:53 Calm 10 Clear CLR 49 40     71%     29.87 29.86      
Apr 18 21:53 NNW 3 10 Clear CLR 51 40     65%     29.86 29.85      
Apr 18 20:53 N 6 10 Clear CLR 51 40     65%     29.84 29.83      
Apr 18 19:53 N 9 10 Clear CLR 56 40     55%     29.83 29.83      
Apr 18 18:53 N 15 10 Partly Cloudy FEW050 SCT060 59 42     53%     29.81 29.8      
Apr 18 17:53 N 16 10 Partly Cloudy SCT055 60 42     51%     29.8 29.79      
Apr 18 16:53 N 20 10 Mostly Clear and Windy FEW049 59 41     51%     29.8 29.79      
Apr 18 15:53 N 18 10 Mostly Clear FEW041 61 44     54%     29.82 29.8      
Apr 18 14:53   10 Partly Cloudy SCT034 59 44     58%     29.81 29.8      
Apr 18 13:53 N 20 10 Mostly Cloudy and Windy BKN030 56 44     64%     29.84 29.83      
Apr 18 13:44 NNW 17 10 Cloudy OVC030 55 44     66%     29.84        
Apr 18 12:53 N 17 10 Mostly Cloudy BKN026 55 45     69%     29.84 29.83     0
Apr 18 11:53 N 15 10 Mostly Cloudy BKN024 53 44     71%     29.84 29.82      
Apr 18 10:53   10 Mostly Cloudy BKN022 52 44     74%     29.85 29.84      
Apr 18 09:53   10 Cloudy SCT015 BKN020 OVC080 52 45     77%     29.84 29.83 0 0  
Apr 18 08:53   9 Cloudy BKN015 OVC048 52 48     86%     29.8 29.78      
Apr 18 07:53 N 11 8 Cloudy OVC015 52 49     89%     29.81 29.79      
Apr 18 06:53 N 10 5 Fog/Mist OVC008 52 50     93%     29.78 29.76      
Apr 18 06:02 N 14 5 Fog/Mist BKN008 BKN011 OVC021 54 52     93%     29.7        
Apr 18 05:53 N 16 6 Fog/Mist BKN010 OVC021 56 54     93%     29.7 29.67      
Apr 18 05:06 N 13 7 Cloudy SCT009 BKN019 OVC026 57 55     93%     29.67        
Apr 18 04:53 N 13 7 Cloudy BKN010 BKN016 OVC022 57 55     93%     29.67 29.65      
Apr 18 04:23 N 9 7 Cloudy OVC009 58 56     93%     29.66        
Apr 18 04:05 N 7 8 Cloudy BKN010 OVC015 58 56     93%     29.69        
Apr 18 03:53 NE 6 9 Cloudy BKN009 OVC015 58 56     93%     29.68 29.66      
Apr 18 03:44 NNE 8 9 Cloudy OVC009 58 56     93%     29.68        
Apr 18 02:53 NNE 10 10 Cloudy OVC011 58 56     93%     29.67 29.65      
Apr 18 02:26 N 9 10 Mostly Cloudy BKN011 58 56     93%     29.68        
Apr 18 01:53 NNW 8 10 Mostly Clear FEW110 59 56     90%     29.69 29.67      
Apr 18 00:59 W 10 10 Cloudy FEW019 SCT038 OVC085 59 57     93%     29.71        
Apr 18 00:53 W 11 10 Cloudy FEW017 BKN025 OVC085 59 57     93%     29.71 29.69 0   0
Apr 18 00:44 WSW 11 10 Thunderstorms and Rain FEW015 BKN027 OVC080 59 57     93%     29.72   0    
Apr 18 00:36 WSW 15 2 Thunderstorms and Rain and Fog/Mist SCT017 BKN028 OVC080 58 57     97%     29.73   0    
Apr 18 00:29   0.75 Thunderstorms and Heavy Rain and Fog/Mist and Squalls BKN015 OVC020 58 56     93%         0    
Apr 18 00:26   1 Thunderstorms and Heavy Rain and Fog/Mist and Squalls OVC015 62 59     90%         0    
Apr 18 00:23   4 Fog/Mist OVC017 68 64     87%              
Apr 17 23:53 S 16 10 Cloudy BKN020 OVC026 68 64     87%     29.65 29.62      
Apr 17 22:53   10 Cloudy SCT015 BKN022 OVC027 68 64     87%     29.68 29.65      
Apr 17 21:53 S 13 10 Cloudy SCT017 BKN026 OVC032 68 65     90%     29.69 29.66 0 0  
Apr 17 20:53 S 14 9 Cloudy FEW016 BKN026 OVC030 68 65     90%     29.68 29.65 0    
Apr 17 20:39 S 14 9 Cloudy SCT016 BKN026 OVC036 68 65     90%     29.68   0    
Apr 17 19:53   10 Light Rain SCT028 OVC065 71 64     79%   72 29.69 29.66 0    
Apr 17 18:53 S 10 10 Light Rain FEW033 FEW042 73 63     71%   73 29.69 29.66 0   0
Apr 17 17:53 S 13 10 Partly Cloudy SCT055 72 62     71%   72 29.7 29.67      
Apr 17 16:53 S 16 10 Mostly Cloudy BKN036 74 63     69%   74 29.7 29.67      
Apr 17 15:53 SSW 17 10 Mostly Cloudy BKN025 73 62     68%   73 29.72 29.7      
Apr 17 15:44   10 Mostly Cloudy BKN025 73 62     68%   73 29.72        
Apr 17 14:53   10 Mostly Cloudy BKN036 75 62     64%   75 29.72 29.7      
Apr 17 13:53 SSW 18 10 Mostly Cloudy BKN038 75 61     62%   75 29.74 29.71      
Apr 17 12:53 SSW 22 10 Cloudy and Windy OVC034 72 60     66%   72 29.76 29.74      
Apr 17 11:53 SSW 17 10 Cloudy BKN030 OVC037 71 60     68%   71 29.79 29.77      
Apr 17 11:39   10 Clear   70 60     71%     29.8        
Apr 17 10:53   10 Clear   70 60     71%     29.79 29.76      
Apr 17 09:53 S 20 10 Cloudy and Windy OVC022 69 60     73%     29.77 29.75      
Apr 17 08:53 S 17 10 Mostly Cloudy BKN023 68 59     73%     29.79 29.76      
May 15 06:53 NNW 6 10 Clear CLR 61 60     97%     29.92 29.89     1
May 14 05:53 S 10 10 Clear CLR 69 63     81%     29.95 29.92      
May 13 10:53   10 Clear CLR 80 68     67%   83 30.03 30      
May 12 18:53 S 17 10 Clear CLR 81 65     58%   83 29.91 29.88      
May 12 08:53 S 11 10 Clear CLR 74 64     71%   74 29.96 29.93      
May 12 00:53 SSE 8 10 Clear CLR 70 61     73%     29.89 29.86      
Jun 12 01:53 S 9 10 Clear CLR 73 65     76%   74 29.92 29.88      
Jun 11 21:53 S 10 10 Clear CLR 79 65     62%   80 29.9 29.86      
Jun 11 11:53   10 Partly Cloudy SCT032 84 71     65%   89 29.94 29.9      
Jun 11 10:53   10 Clear CLR 83 70     65%   87 29.93 29.89      
Jun 10 19:53 S 15 10 Clear CLR 81 67     62%   83 29.83 29.79      
Jun 10 17:53   10 Clear CLR 85 68     57%   88 29.82 29.79      
Jun 10 11:53   10 Clear CLR 82 67     60%   85 29.9 29.86      
Jun 09 14:53 S 13 10 Partly Cloudy SCT055 80 61     52%   81 29.91 29.89      
Jun 09 00:53 SE 3 10 Clear CLR 60 55     83%     29.94 29.91      
Jun 08 23:53 S 3 10 Clear   62 56     80%     29.94 29.92      
Jun 08 12:53 WNW 5 10 Clear CLR 79 53     41%   78 30.05 30.03      
Jun 08 06:53 Calm 10 Clear CLR 56 53     90%     30.06 30.04      
Jun 07 21:53 Calm 10 Clear CLR 64 56     75%     30.05 30.02      
Jun 07 14:53 NNE 9 10 Clear CLR 81 52     37%   80 30.06 30.03      
Jun 07 11:53 E 9 10 Mostly Clear FEW060 79 49     35%   78 30.09 30.07      
Jun 06 11:53 N 5 10 Clear CLR 82 64     55%   84 29.96 29.93      
Jun 06 10:53 N 5 10 Clear CLR 79 66     65%   80 29.96 29.92      
Notice The following observation data may not be complete
Jun 06 04:02   2 Fog/Mist CLR          %              
Jun 05 19:53 Calm 10 Mostly Cloudy BKN075 84 70     63%   88 29.83 29.79